格洛纳斯-798 COSMOS 2419 [GLONASS-M]

导读 | 星芒AI

COSMOS 2419 是一颗俄罗斯 GLONASS-M 导航卫星,于 2011 年 11 月 25 日由联盟号火箭从普列谢茨克航天发射场发射。该卫星是 GLONASS 系统的组成部分,用于提供全球定位和导航服务。GLONASS-M 系列卫星相比早期型号具有更长的使用寿命和更高的精度。COSMOS 2419 运行在中地球轨道,设计寿命约为 7 年,支持俄罗斯及国际用户的导航需求。

基本信息
目录编号:
28915
目录名称:
COSMOS 2419 (GLONASS)
国际标识:
2005-050A
轨道中心:
EARTH
卫星名称:
格洛纳斯-798
卫星全名:
格洛纳斯-798 COSMOS 2419 [GLONASS-M]
卫星状态:
在轨 (已飞行7248 天)
发射日期:
2005-12-25 UTC
国别 :
俄罗斯(独联体) (CIS)
星等 :
--
轨道信息
数据来源 国际轨道数据 AOE轨道数据
星历时间 2025-10-28T16:57:39+0800
22小时前
查看轨道信息
2025-10-27T20:00:00+0800
1天前
查看轨道信息
半长轴 25507.522km 25507.522km
偏心率 0.0014617 0.0014668
轨道倾角 65.699° 65.700°
近地点辐角 328.449° 328.475°
升交点赤经 323.904° 323.933°
平近点角 30.846° 80.789°
近地点 19092.102km 19091.972km
远地点 19166.672km 19166.802km
周期 675.713分钟 675.713分钟
每日圈数 2.131083 2.131083
详细信息
平衡模式:
三轴稳定
覆盖范围:
全球
运营商:
列舍特涅夫卫星信息系统
运营商所在国:
俄罗斯
制造商(研发单位):
列舍特涅夫卫星信息系统
制造商所在国:
俄罗斯
使用方式:
暂无
卫星简介
格洛纳斯(GLONASS )是苏联/俄罗斯研制卫星导航系统。标准配置为24颗卫星,其中18颗卫星就能保证该系统为俄罗斯境内用户提供全部服务。该卫星已退役。
2D轨道图
3D轨道图
轨道高度分析图
轨道倾角分析图
轨道综合分析图
查看轨道综合分析图